Simultaneous Nadir Overpasses (SNOs) Predictions

Prediction of SNOs between GOES-15 and METOP-C Satellite Orbit:

Table of predicted SNOs for the next 14.0 days since TLE Epoch: 10/24/2020
Index Date Time (GOES-15) GOES-15 Lat,Lon METOP-C Lat,Lon Distance(km) Time Diff (sec)
1 10/24/2020 06:06:43 -0.16,-128.28 -0.21,-128.47 22.23 80
2 10/26/2020 18:02:17 0.17,-128.19 0.11,-128.04 17.94 80
3 10/29/2020 06:00:39 -0.17,-128.17 -0.05,-127.64 61.29 80
4 10/30/2020 18:22:13 0.18,-128.11 1.08,-132.20 466.00 80
5 10/31/2020 17:58:54 0.18,-128.08 -0.04,-127.21 100.33 80
6 11/02/2020 06:17:54 -0.18,-128.08 -1.01,-131.79 423.69 80
7 11/03/2020 05:59:56 -0.18,-128.05 0.11,-126.80 142.38 80
8 11/04/2020 18:18:48 0.19,-127.97 0.98,-131.35 386.22 80
9 11/05/2020 17:55:30 0.19,-127.94 -0.14,-126.36 179.31 80
